| time (UTC) | temp F | wind direction | speed knots | gust knots | rain 1hr in | rain 24hr in | rain mn in | humidity % | barometer mb |
| 20260505073405 | 49 | 250 | 6.1 | 20.9 | 0.00 | 0.00 | 0.00 | 92 | 1012.7 |
| 20260505072904 | 49 | 234 | 7.8 | 20.9 | 0.00 | 0.00 | 0.00 | 92 | 1012.7 |
| 20260505072404 | 49 | 256 | 7.8 | 14.8 | 0.00 | 0.00 | 0.00 | 92 | 1012.7 |
| 20260505071404 | 49 | 258 | 6.1 | 17.4 | 0.00 | 0.00 | 0.00 | 92 | 1012.7 |
| 20260505070904 | 49 | 246 | 5.2 | 17.4 | 0.00 | 0.00 | 0.00 | 92 | 1012.5 |
| 20260505070404 | 49 | 265 | 5.2 | 14.8 | 0.00 | 0.00 | 0.00 | 92 | 1012.5 |
| 20260505065905 | 49 | 241 | 5.2 | 20.0 | 0.00 | 0.00 | 0.00 | 92 | 1012.5 |
| 20260505065405 | 49 | 247 | 7.0 | 20.0 | 0.00 | 0.00 | 0.00 | 92 | 1012.5 |
| 20260505064904 | 49 | 271 | 5.2 | 19.1 | 0.00 | 0.00 | 0.00 | 92 | 1012.5 |
| 20260505064405 | 49 | 265 | 7.0 | 19.1 | 0.00 | 0.00 | 0.00 | 92 | 1012.5 |
| 20260505063905 | 49 | 238 | 6.1 | 19.1 | 0.00 | 0.00 | 0.00 | 92 | 1012.3 |
| 20260505062904 | 49 | 252 | 6.1 | 20.0 | 0.00 | 0.00 | 0.00 | 92 | 1012.3 |
| 20260505062405 | 49 | 259 | 5.2 | 20.0 | 0.00 | 0.00 | 0.00 | 92 | 1012.1 |
| 20260505061906 | 49 | 243 | 6.1 | 20.0 | 0.00 | 0.00 | 0.00 | 92 | 1012.1 |
| 20260505061406 | 49 | 238 | 9.6 | 20.0 | 0.00 | 0.00 | 0.00 | 91 | 1012.1 |
| 20260505060905 | 49 | 247 | 6.1 | 20.9 | 0.00 | 0.00 | 0.00 | 91 | 1012.0 |
| 20260505060406 | 49 | 241 | 7.8 | 27.8 | 0.00 | 0.00 | 0.00 | 91 | 1012.0 |
| 20260505055905 | 49 | 246 | 8.7 | 27.8 | 0.00 | 0.00 | 0.00 | 91 | 1012.0 |
| 20260505055405 | 49 | 236 | 11.3 | 27.8 | 0.00 | 0.00 | 0.00 | 91 | 1011.7 |
| 20260505054907 | 49 | 238 | 7.8 | 25.2 | 0.00 | 0.00 | 0.00 | 91 | 1011.7 |
| 20260505053906 | 49 | 260 | 6.1 | 20.0 | 0.00 | 0.00 | 0.00 | 91 | 1011.5 |
| 20260505053406 | 49 | 244 | 7.0 | 20.0 | 0.00 | 0.00 | 0.00 | 91 | 1011.5 |
| 20260505052905 | 49 | 255 | 7.0 | 20.9 | 0.00 | 0.00 | 0.00 | 91 | 1011.6 |
| 20260505052405 | 49 | 248 | 7.0 | 20.9 | 0.00 | 0.00 | 0.00 | 91 | 1011.6 |
| 20260505050905 | 50 | 255 | 5.2 | 20.9 | 0.00 | 0.00 | 0.00 | 90 | 1011.3 |
| 20260505041405 | 51 | 242 | 8.7 | 19.1 | 0.00 | 0.00 | 0.00 | 87 | 1010.7 |
| 20260505040406 | 51 | 267 | 7.0 | 26.9 | 0.00 | 0.00 | 0.00 | 87 | 1010.7 |
| 20260505035904 | 51 | 269 | 7.8 | 26.9 | 0.00 | 0.00 | 0.00 | 86 | 1010.7 |
| 20260505035406 | 51 | 275 | 7.8 | 19.1 | 0.00 | 0.00 | 0.00 | 86 | 1010.7 |
| 20260505034404 | 51 | 263 | 8.7 | 20.9 | 0.00 | 0.00 | 0.00 | 85 | 1010.7 |
| 20260505033905 | 52 | 263 | 9.6 | 22.6 | 0.00 | 0.00 | 0.00 | 84 | 1010.7 |
| 20260505033407 | 52 | 271 | 10.4 | 22.6 | 0.00 | 0.00 | 0.00 | 84 | 1010.7 |
| 20260505032904 | 52 | 237 | 9.6 | 20.0 | 0.00 | 0.00 | 0.00 | 83 | 1010.7 |
| 20260505032404 | 52 | 255 | 6.1 | 20.0 | 0.00 | 0.00 | 0.00 | 82 | 1010.7 |
| 20260505031907 | 53 | 241 | 7.0 | 14.8 | 0.00 | 0.00 | 0.00 | 82 | 1010.7 |
| 20260505031404 | 53 | 263 | 6.1 | 15.6 | 0.00 | 0.00 | 0.00 | 81 | 1010.7 |
| 20260505030407 | 53 | 248 | 6.1 | 19.1 | 0.00 | 0.00 | 0.00 | 81 | 1010.5 |
| 20260505025906 | 53 | 251 | 8.7 | 20.9 | 0.00 | 0.00 | 0.00 | 80 | 1010.5 |
| 20260505025405 | 54 | 263 | 7.8 | 20.9 | 0.00 | 0.00 | 0.00 | 80 | 1010.9 |
| 20260505024906 | 54 | 229 | 11.3 | 20.0 | 0.00 | 0.00 | 0.00 | 79 | 1010.9 |
| 20260505024405 | 54 | 233 | 7.0 | 20.0 | 0.00 | 0.00 | 0.00 | 79 | 1010.9 |
| 20260505022905 | 54 | 239 | 7.8 | 20.0 | 0.00 | 0.00 | 0.00 | 78 | 1010.9 |
| 20260505022404 | 55 | 235 | 11.3 | 24.3 | 0.00 | 0.00 | 0.00 | 78 | 1010.9 |
| 20260505021905 | 55 | 257 | 11.3 | 24.3 | 0.00 | 0.00 | 0.00 | 77 | 1010.9 |
| 20260505021406 | 55 | 247 | 7.8 | 20.0 | 0.00 | 0.00 | 0.00 | 77 | 1010.9 |
| 20260505020905 | 55 | 234 | 5.2 | 20.0 | 0.00 | 0.00 | 0.00 | 76 | 1010.9 |
| 20260505020404 | 55 | 239 | 8.7 | 22.6 | 0.00 | 0.00 | 0.00 | 76 | 1010.9 |
| 20260505015906 | 55 | 246 | 7.8 | 22.6 | 0.00 | 0.00 | 0.00 | 76 | 1010.9 |
| 20260505015405 | 55 | 262 | 7.8 | 22.6 | 0.00 | 0.00 | 0.00 | 75 | 1010.9 |
| 20260505014404 | 56 | 229 | 6.1 | 19.1 | 0.00 | 0.00 | 0.00 | 75 | 1010.9 |
| 20260505013904 | 56 | 229 | 6.1 | 22.6 | 0.00 | 0.00 | 0.00 | 75 | 1010.9 |
| 20260505013405 | 56 | 258 | 9.6 | 22.6 | 0.00 | 0.00 | 0.00 | 74 | 1011.0 |
| 20260505012904 | 56 | 224 | 8.7 | 20.0 | 0.00 | 0.00 | 0.00 | 74 | 1011.0 |
| 20260505012406 | 57 | 237 | 10.4 | 20.0 | 0.00 | 0.00 | 0.00 | 73 | 1011.0 |
| 20260505011905 | 57 | 214 | 7.0 | 19.1 | 0.00 | 0.00 | 0.00 | 72 | 1011.0 |
| 20260505010906 | 57 | 219 | 7.8 | 20.0 | 0.00 | 0.00 | 0.00 | 71 | 1011.0 |
| 20260505010404 | 58 | 240 | 8.7 | 20.0 | 0.00 | 0.00 | 0.00 | 71 | 1011.0 |
| 20260505005906 | 58 | 200 | 6.1 | 19.1 | 0.00 | 0.00 | 0.00 | 70 | 1011.0 |
| 20260505005404 | 58 | 199 | 7.8 | 19.1 | 0.00 | 0.00 | 0.00 | 70 | 1011.0 |
| 20260505004905 | 58 | 212 | 6.1 | 15.6 | 0.00 | 0.00 | 0.00 | 70 | 1011.0 |
| 20260505004404 | 58 | 211 | 7.8 | 20.0 | 0.00 | 0.00 | 0.00 | 71 | 1011.0 |
| 20260505003906 | 59 | 217 | 7.0 | 20.0 | 0.00 | 0.00 | 0.00 | 70 | 1010.9 |
| 20260505003406 | 59 | 220 | 7.8 | 17.4 | 0.00 | 0.00 | 0.00 | 70 | 1011.0 |
| 20260505002905 | 59 | 206 | 6.1 | 20.0 | 0.00 | 0.00 | 0.00 | 69 | 1011.0 |
| 20260505002405 | 59 | 241 | 6.1 | 20.0 | 0.00 | 0.00 | 0.00 | 70 | 1011.0 |
| 20260505001905 | 59 | 225 | 7.0 | 20.9 | 0.00 | 0.00 | 0.00 | 69 | 1011.0 |
| 20260505000905 | 60 | 269 | 7.8 | 20.0 | 0.00 | 0.00 | 0.00 | 69 | 1011.0 |
| 20260505000406 | 60 | 218 | 7.8 | 20.0 | 0.00 | 0.00 | 0.00 | 69 | 1011.0 |
| 20260504235906 | 60 | 248 | 6.1 | 20.0 | 0.00 | 0.00 | 0.00 | 69 | 1011.0 |
| 20260504234904 | 61 | 256 | 7.0 | 17.4 | 0.00 | 0.00 | 0.00 | 68 | 1011.0 |
| 20260504233904 | 61 | 268 | 6.1 | 19.1 | 0.00 | 0.00 | 0.00 | 68 | 1011.0 |
| 20260504232904 | 61 | 252 | 4.3 | 15.6 | 0.00 | 0.00 | 0.00 | 69 | 1011.0 |
| 20260504231906 | 61 | 240 | 4.3 | 14.8 | 0.00 | 0.00 | 0.00 | 70 | 1011.0 |
| 20260504231404 | 61 | 265 | 7.8 | 17.4 | 0.00 | 0.00 | 0.00 | 68 | 1011.1 |
| 20260504230904 | 62 | 254 | 7.8 | 17.4 | 0.00 | 0.00 | 0.00 | 68 | 1011.4 |
| 20260504230404 | 62 | 249 | 4.3 | 13.0 | 0.00 | 0.00 | 0.00 | 68 | 1011.4 |
| 20260504225904 | 62 | 265 | 3.5 | 10.4 | 0.00 | 0.00 | 0.00 | 69 | 1011.4 |
| 20260504225406 | 62 | 256 | 4.3 | 13.0 | 0.00 | 0.00 | 0.00 | 69 | 1011.5 |
| 20260504223404 | 62 | 259 | 4.3 | 15.6 | 0.00 | 0.00 | 0.00 | 69 | 1011.5 |
| 20260504222905 | 62 | 258 | 6.1 | 15.6 | 0.00 | 0.00 | 0.00 | 67 | 1011.5 |
| 20260504221904 | 62 | 268 | 4.3 | 14.8 | 0.00 | 0.00 | 0.00 | 68 | 1011.5 |
| 20260504221406 | 62 | 274 | 4.3 | 14.8 | 0.00 | 0.00 | 0.00 | 69 | 1011.8 |
| 20260504220404 | 62 | 272 | 5.2 | 12.2 | 0.00 | 0.00 | 0.00 | 70 | 1011.8 |
| 20260504215905 | 62 | 251 | 4.3 | 12.2 | 0.00 | 0.00 | 0.00 | 69 | 1011.8 |
| 20260504215405 | 62 | 225 | 4.3 | 12.2 | 0.00 | 0.00 | 0.00 | 68 | 1011.8 |
| 20260504214905 | 62 | 289 | 4.3 | 14.8 | 0.00 | 0.00 | 0.00 | 67 | 1011.9 |
| 20260504213404 | 62 | 280 | 2.6 | 12.2 | 0.00 | 0.00 | 0.00 | 69 | 1011.9 |
| 20260504212904 | 62 | 268 | 3.5 | 12.2 | 0.00 | 0.00 | 0.00 | 68 | 1011.9 |
| 20260504212404 | 62 | 281 | 4.3 | 11.3 | 0.00 | 0.00 | 0.00 | 69 | 1011.9 |
| 20260504211904 | 62 | 265 | 5.2 | 11.3 | 0.00 | 0.00 | 0.00 | 68 | 1011.9 |
| 20260504211404 | 62 | 239 | 2.6 | 10.4 | 0.00 | 0.00 | 0.00 | 67 | 1011.9 |
| 20260504210904 | 62 | 260 | 2.6 | 13.0 | 0.00 | 0.00 | 0.00 | 67 | 1011.9 |
| 20260504210404 | 63 | 265 | 4.3 | 13.9 | 0.00 | 0.00 | 0.00 | 67 | 1011.9 |
| 20260504205906 | 63 | 278 | 6.1 | 13.9 | 0.00 | 0.00 | 0.00 | 66 | 1011.9 |
| 20260504205405 | 63 | 255 | 3.5 | 12.2 | 0.00 | 0.00 | 0.00 | 66 | 1011.9 |
| 20260504204906 | 63 | 278 | 5.2 | 12.2 | 0.00 | 0.00 | 0.00 | 66 | 1011.9 |
| 20260504204406 | 63 | 286 | 4.3 | 13.9 | 0.00 | 0.00 | 0.00 | 64 | 1011.9 |
| 20260504203905 | 64 | 277 | 4.3 | 13.9 | 0.00 | 0.00 | 0.00 | 63 | 1011.9 |
| 20260504203406 | 64 | 266 | 4.3 | 7.0 | 0.00 | 0.00 | 0.00 | 63 | 1011.9 |
| 20260504202405 | 64 | 280 | 3.5 | 13.0 | 0.00 | 0.00 | 0.00 | 63 | 1011.9 |
| 20260504201905 | 64 | 293 | 3.5 | 10.4 | 0.00 | 0.00 | 0.00 | 62 | 1011.9 |
| 20260504201405 | 64 | 267 | 3.5 | 8.7 | 0.00 | 0.00 | 0.00 | 61 | 1011.9 |
| 20260504200904 | 65 | 233 | 5.2 | 8.7 | 0.00 | 0.00 | 0.00 | 60 | 1011.9 |
| 20260504200405 | 65 | 259 | 3.5 | 13.0 | 0.00 | 0.00 | 0.00 | 61 | 1011.9 |
| 20260504195905 | 65 | 247 | 1.7 | 13.0 | 0.00 | 0.00 | 0.00 | 61 | 1011.9 |
| 20260504195405 | 65 | 288 | 4.3 | 13.0 | 0.00 | 0.00 | 0.00 | 58 | 1011.9 |
| 20260504194904 | 66 | 274 | 4.3 | 12.2 | 0.00 | 0.00 | 0.00 | 55 | 1011.9 |
| 20260504194404 | 67 | 291 | 4.3 | 11.3 | 0.00 | 0.00 | 0.00 | 55 | 1011.9 |
| 20260504193907 | 67 | 285 | 3.5 | 13.0 | 0.00 | 0.00 | 0.00 | 54 | 1011.9 |
| 20260504193404 | 67 | 277 | 1.7 | 13.0 | 0.00 | 0.00 | 0.00 | 55 | 1011.9 |
| 20260504192405 | 69 | 293 | 7.0 | 13.0 | 0.00 | 0.00 | 0.00 | 49 | 1011.9 |
| 20260504191904 | 72 | 279 | 6.1 | 12.2 | 0.00 | 0.00 | 0.00 | 48 | 1011.6 |
| 20260504191404 | 74 | 282 | 5.2 | 11.3 | 0.00 | 0.00 | 0.00 | 48 | 1011.6 |
| 20260504190906 | 76 | 293 | 4.3 | 11.3 | 0.00 | 0.00 | 0.00 | 47 | 1011.6 |
| 20260504190404 | 76 | 290 | 4.3 | 7.0 | 0.00 | 0.00 | 0.00 | 47 | 1011.6 |
| 20260504185904 | 76 | 303 | 2.6 | 5.2 | 0.00 | 0.00 | 0.00 | 47 | 1011.8 |
| 20260504184906 | 75 | 304 | 2.6 | 4.3 | 0.00 | 0.00 | 0.00 | 48 | 1011.8 |
| 20260504183906 | 75 | 297 | 0.9 | 1.7 | 0.00 | 0.00 | 0.00 | 45 | 1011.8 |
| 20260504183404 | 74 | 297 | 1.7 | 1.7 | 0.00 | 0.00 | 0.00 | 48 | 1011.8 |
| 20260504182905 | 74 | 297 | 0.9 | 1.7 | 0.00 | 0.00 | 0.00 | 46 | 1011.9 |
| 20260504182405 | 74 | 297 | 0.9 | 1.7 | 0.00 | 0.00 | 0.00 | 44 | 1011.9 |
| 20260504181904 | 74 | 297 | 0.9 | 1.7 | 0.00 | 0.00 | 0.00 | 46 | 1011.9 |
| 20260504180905 | 74 | 297 | 0.9 | 1.7 | 0.00 | 0.00 | 0.00 | 45 | 1012.0 |
| 20260504180404 | 74 | 297 | 0.9 | 2.6 | 0.00 | 0.00 | 0.00 | 46 | 1012.0 |
| 20260504175405 | 73 | 297 | 1.7 | 2.6 | 0.00 | 0.00 | 0.00 | 47 | 1011.9 |
| 20260504174904 | 73 | 297 | 1.7 | 2.6 | 0.00 | 0.00 | 0.00 | 45 | 1011.9 |
| 20260504174405 | 74 | 297 | 0.9 | 2.6 | 0.00 | 0.00 | 0.00 | 45 | 1011.9 |
| 20260504173904 | 74 | 297 | 0.9 | 2.6 | 0.00 | 0.00 | 0.00 | 44 | 1011.9 |
| 20260504173404 | 74 | 297 | 1.7 | 2.6 | 0.00 | 0.00 | 0.00 | 47 | 1011.9 |
| 20260504172905 | 74 | 299 | 0.9 | 2.6 | 0.00 | 0.00 | 0.00 | 47 | 1012.0 |
| 20260504172405 | 74 | 307 | 1.7 | 2.6 | 0.00 | 0.00 | 0.00 | 44 | 1012.0 |
| 20260504171405 | 73 | 307 | 0.9 | 2.6 | 0.00 | 0.00 | 0.00 | 46 | 1012.0 |
| 20260504170406 | 72 | 307 | 1.7 | 2.6 | 0.00 | 0.00 | 0.00 | 48 | 1012.0 |
| 20260504160408 | 70 | 340 | 1.7 | 5.2 | 0.00 | 0.00 | 0.00 | 50 | 1011.1 |
| 20260504150905 | 65 | 280 | 0.9 | 4.3 | 0.00 | 0.00 | 0.00 | 50 | 1011.0 |
| 20260504150406 | 64 | 280 | 0.9 | 4.3 | 0.00 | 0.00 | 0.00 | 57 | 1010.8 |
| 20260504140905 | 56 | 195 | 5.2 | 5.2 | 0.00 | 0.00 | 0.00 | 64 | 1010.5 |
| 20260504140404 | 56 | 198 | 5.2 | 5.2 | 0.00 | 0.00 | 0.00 | 63 | 1010.5 |
| 20260504130405 | 53 | 183 | 7.0 | 7.8 | 0.00 | 0.00 | 0.00 | 66 | 1010.1 |
| 20260504110404 | 53 | 168 | 4.3 | 5.2 | 0.00 | 0.00 | 0.00 | 67 | 1010.0 |
| 20260504100404 | 53 | 187 | 2.6 | 4.3 | 0.00 | 0.00 | 0.00 | 67 | 1010.0 |
| 20260504081405 | 55 | 312 | 0.0 | 0.9 | 0.00 | 0.00 | 0.00 | 62 | 1009.6 |
| 20260504080904 | 55 | 297 | 0.0 | 2.6 | 0.00 | 0.00 | 0.00 | 62 | 1009.6 |
| 20260504080405 | 56 | 297 | 0.9 | 4.3 | 0.00 | 0.00 | 0.00 | 63 | 1009.6 |